When you browse on this site, cookies collect data to enhance your experience and personalize the content and advertising you see.
Visit our Privacy Policy to learn more. By continuing to use the site, you agree to this use of cookies and data.
  • en France
  • Liste des pays
  • À 7 jours
  • Température de l'eau
  • Carte satellitaire
  • Carte météo
  • Widgets météo
  • user-avatar
    Se connecter

    Météo par heure à Vljora

    Ce jour, 18 Juin, Mardi

    Heure Température Précipitation Vent Pression Humidité
    00:00 +25°C° 0 mm 1 m/s 759 mmHg 76%
    01:00 +25°C° 0 mm 1 m/s 759 mmHg 78%
    02:00 +24°C° 0 mm 1 m/s 759 mmHg 79%
    03:00 +24°C° 0 mm 1 m/s 759 mmHg 80%
    04:00 +24°C° 0 mm 1 m/s 759 mmHg 82%
    05:00 +25°C° 0 mm 1 m/s 760 mmHg 78%
    06:00 +26°C° 0 mm 1 m/s 760 mmHg 74%
    07:00 +27°C° 0 mm 1 m/s 760 mmHg 70%
    08:00 +28°C° 0 mm 1 m/s 760 mmHg 64%
    09:00 +29°C° 0 mm 1 m/s 760 mmHg 59%
    10:00 +30°C° 0 mm 1 m/s 760 mmHg 54%
    11:00 +30°C° 0 mm 2 m/s 760 mmHg 55%
    12:00 +30°C° 0 mm 2 m/s 760 mmHg 56%
    13:00 +30°C° 0 mm 3 m/s 760 mmHg 57%
    14:00 +30°C° 0 mm 3 m/s 759 mmHg 58%
    15:00 +30°C° 0 mm 3 m/s 759 mmHg 58%
    16:00 +29°C° 0 mm 4 m/s 759 mmHg 59%
    17:00 +28°C° 0 mm 3 m/s 759 mmHg 62%
    18:00 +28°C° 0 mm 3 m/s 759 mmHg 66%
    19:00 +27°C° 0 mm 3 m/s 759 mmHg 69%
    20:00 +26°C° 0 mm 3 m/s 759 mmHg 69%
    21:00 +26°C° 0 mm 3 m/s 759 mmHg 69%
    22:00 +25°C° 0 mm 4 m/s 760 mmHg 69%
    23:00 +25°C° 0 mm 4 m/s 760 mmHg 69%

    Demain, 19 Juin, Mercredi

    Heure Température Précipitation Vent Pression Humidité
    00:00 +23°C° 0 mm 4 m/s 759 mmHg 69%
    01:00 +23°C° 0 mm 4 m/s 759 mmHg 69%
    02:00 +23°C° 0 mm 4 m/s 759 mmHg 69%
    03:00 +22°C° 0 mm 4 m/s 759 mmHg 70%
    04:00 +22°C° 0 mm 4 m/s 759 mmHg 71%
    05:00 +23°C° 0 mm 4 m/s 759 mmHg 67%
    06:00 +26°C° 0 mm 3 m/s 759 mmHg 63%
    07:00 +27°C° 0 mm 3 m/s 759 mmHg 60%
    08:00 +28°C° 0 mm 3 m/s 759 mmHg 56%
    09:00 +29°C° 0 mm 3 m/s 759 mmHg 52%
    10:00 +30°C° 0 mm 3 m/s 759 mmHg 47%
    11:00 +30°C° 0 mm 4 m/s 759 mmHg 49%
    12:00 +32°C° 0 mm 4 m/s 759 mmHg 51%
    13:00 +32°C° 0 mm 5 m/s 759 mmHg 52%
    14:00 +30°C° 0 mm 5 m/s 758 mmHg 54%
    15:00 +30°C° 0 mm 5 m/s 758 mmHg 57%
    16:00 +29°C° 0 mm 5 m/s 758 mmHg 59%
    17:00 +28°C° 0 mm 5 m/s 758 mmHg 64%
    18:00 +27°C° 0 mm 5 m/s 758 mmHg 68%
    19:00 +26°C° 0 mm 4 m/s 758 mmHg 73%
    20:00 +25°C° 0 mm 4 m/s 758 mmHg 73%
    21:00 +25°C° 0 mm 4 m/s 758 mmHg 72%
    22:00 +24°C° 0 mm 3 m/s 759 mmHg 71%
    23:00 +23°C° 0 mm 4 m/s 758 mmHg 72%

    Après-demain, 20 Juin, Jeudi

    Heure Température Précipitation Vent Pression Humidité
    00:00 +23°C° 0 mm 4 m/s 758 mmHg 72%
    01:00 +22°C° 0 mm 4 m/s 758 mmHg 73%
    02:00 +22°C° 0 mm 4 m/s 758 mmHg 75%
    03:00 +22°C° 0 mm 4 m/s 758 mmHg 77%
    04:00 +21°C° 0 mm 4 m/s 758 mmHg 79%
    05:00 +23°C° 0 mm 4 m/s 758 mmHg 72%
    06:00 +25°C° 0 mm 4 m/s 758 mmHg 64%
    07:00 +27°C° 0 mm 3 m/s 759 mmHg 56%
    08:00 +28°C° 0 mm 4 m/s 759 mmHg 52%
    09:00 +29°C° 0 mm 4 m/s 759 mmHg 48%
    10:00 +30°C° 0 mm 4 m/s 759 mmHg 44%
    11:00 +30°C° 0 mm 5 m/s 759 mmHg 46%
    12:00 +30°C° 0 mm 5 m/s 758 mmHg 47%
    13:00 +30°C° 0 mm 5 m/s 758 mmHg 48%
    14:00 +30°C° 0 mm 5 m/s 758 mmHg 50%
    15:00 +30°C° 0 mm 5 m/s 758 mmHg 52%
    16:00 +29°C° 0 mm 5 m/s 758 mmHg 54%
    17:00 +28°C° 0 mm 5 m/s 758 mmHg 60%
    18:00 +27°C° 0 mm 4 m/s 758 mmHg 65%
    19:00 +26°C° 0 mm 4 m/s 758 mmHg 70%
    20:00 +26°C° 0 mm 4 m/s 759 mmHg 69%
    21:00 +25°C° 0 mm 4 m/s 759 mmHg 68%
    22:00 +23°C° 0 mm 4 m/s 759 mmHg 67%
    23:00 +23°C° 0 mm 4 m/s 759 mmHg 68%

    21 Juin, Vendredi

    Heure Température Précipitation Vent Pression Humidité
    00:00 +23°C° 0 mm 4 m/s 759 mmHg 69%
    01:00 +23°C° 0 mm 4 m/s 759 mmHg 71%
    02:00 +22°C° 0 mm 4 m/s 759 mmHg 73%
    03:00 +22°C° 0 mm 4 m/s 759 mmHg 76%
    04:00 +21°C° 0 mm 4 m/s 759 mmHg 78%
    05:00 +23°C° 0 mm 4 m/s 759 mmHg 73%
    06:00 +25°C° 0 mm 4 m/s 759 mmHg 67%
    07:00 +27°C° 0 mm 4 m/s 760 mmHg 61%
    08:00 +28°C° 0 mm 4 m/s 760 mmHg 56%
    09:00 +29°C° 0 mm 4 m/s 760 mmHg 52%
    10:00 +32°C° 0 mm 4 m/s 760 mmHg 47%
    11:00 +32°C° 0 mm 4 m/s 760 mmHg 47%
    12:00 +32°C° 0 mm 5 m/s 759 mmHg 47%
    13:00 +32°C° 0 mm 6 m/s 759 mmHg 47%
    14:00 +32°C° 0 mm 5 m/s 759 mmHg 48%
    15:00 +32°C° 0 mm 5 m/s 759 mmHg 50%
    16:00 +30°C° 0 mm 5 m/s 759 mmHg 51%
    17:00 +29°C° 0 mm 4 m/s 759 mmHg 56%
    18:00 +28°C° 0 mm 4 m/s 759 mmHg 60%
    19:00 +27°C° 0 mm 4 m/s 759 mmHg 65%
    20:00 +26°C° 0 mm 4 m/s 759 mmHg 64%
    21:00 +26°C° 0 mm 4 m/s 760 mmHg 64%
    22:00 +25°C° 0 mm 4 m/s 760 mmHg 63%
    23:00 +25°C° 0 mm 4 m/s 760 mmHg 62%

    22 Juin, Samedi

    Heure Température Précipitation Vent Pression Humidité
    00:00 +25°C° 0 mm 4 m/s 760 mmHg 60%
    01:00 +25°C° 0 mm 4 m/s 760 mmHg 59%
    02:00 +25°C° 0 mm 4 m/s 760 mmHg 59%
    03:00 +23°C° 0 mm 4 m/s 760 mmHg 60%
    04:00 +23°C° 0 mm 4 m/s 760 mmHg 61%
    05:00 +26°C° 0 mm 4 m/s 760 mmHg 59%
    06:00 +27°C° 0 mm 3 m/s 760 mmHg 57%
    07:00 +29°C° 0 mm 3 m/s 760 mmHg 55%
    08:00 +30°C° 0 mm 3 m/s 760 mmHg 51%
    09:00 +33°C° 0 mm 3 m/s 760 mmHg 46%
    10:00 +34°C° 0 mm 2 m/s 760 mmHg 42%
    11:00 +35°C° 0 mm 3 m/s 760 mmHg 41%
    12:00 +35°C° 0 mm 3 m/s 760 mmHg 40%
    13:00 +36°C° 0 mm 4 m/s 760 mmHg 39%
    14:00 +35°C° 0 mm 4 m/s 760 mmHg 41%
    15:00 +35°C° 0 mm 4 m/s 760 mmHg 43%
    16:00 +34°C° 0 mm 4 m/s 760 mmHg 45%
    17:00 +33°C° 0 mm 3 m/s 760 mmHg 50%
    18:00 +30°C° 0 mm 3 m/s 760 mmHg 55%
    19:00 +29°C° 0 mm 2 m/s 760 mmHg 60%
    20:00 +29°C° 0 mm 2 m/s 760 mmHg 58%
    21:00 +28°C° 0 mm 2 m/s 760 mmHg 56%
    22:00 +28°C° 0 mm 2 m/s 761 mmHg 54%
    23:00 +28°C° 0 mm 1 m/s 760 mmHg 53%

    23 Juin, Dimanche

    Heure Température Précipitation Vent Pression Humidité
    00:00 +27°C° 0 mm 1 m/s 760 mmHg 53%
    01:00 +25°C° 0 mm 0 m/s 760 mmHg 53%
    02:00 +27°C° 0 mm 1 m/s 760 mmHg 52%
    03:00 +27°C° 0 mm 2 m/s 760 mmHg 52%
    04:00 +27°C° 0 mm 2 m/s 760 mmHg 51%
    05:00 +28°C° 0 mm 2 m/s 760 mmHg 49%
    06:00 +30°C° 0 mm 3 m/s 761 mmHg 46%
    07:00 +31°C° 0 mm 3 m/s 761 mmHg 44%
    08:00 +33°C° 0 mm 3 m/s 761 mmHg 44%
    09:00 +33°C° 0 mm 3 m/s 761 mmHg 45%
    10:00 +34°C° 0 mm 2 m/s 762 mmHg 45%
    11:00 +34°C° 0 mm 2 m/s 761 mmHg 45%
    12:00 +34°C° 0 mm 2 m/s 761 mmHg 45%
    13:00 +34°C° 0 mm 2 m/s 761 mmHg 44%
    14:00 +34°C° 0 mm 2 m/s 761 mmHg 45%
    15:00 +32°C° 0 mm 2 m/s 761 mmHg 45%
    16:00 +32°C° 0 mm 2 m/s 761 mmHg 46%
    17:00 +31°C° 0 mm 2 m/s 761 mmHg 51%
    18:00 +30°C° 0 mm 2 m/s 761 mmHg 56%
    19:00 +28°C° 0 mm 3 m/s 761 mmHg 62%
    20:00 +28°C° 0 mm 3 m/s 761 mmHg 59%
    21:00 +28°C° 0 mm 3 m/s 762 mmHg 57%
    22:00 +28°C° 0 mm 3 m/s 762 mmHg 55%
    23:00 +27°C° 0 mm 4 m/s 762 mmHg 57%
    Voir plus